Location: Unspecified
(0.0000°N, 0.0000°E)
Time: 10:27:51
(UTC+00:00)

MIDAS 4 DEB - Pass Details

Date: 13 November 2025
Orbit: 3271 x 3959 km, 95.8° (Epoch: 26 July)

Event Time Altitude Azimuth Distance (km) Brightness Sun altitude
Exits shadow 20:16:14 52° 77° (ENE) 4,223 ? -35.8°
Maximum altitude 20:19:19 55° 103° (ESE) 4,164 ? -36.5°
Drops below altitude 10° 20:38:07 10° 176° (S) 7,026 ? -40.8°
Sets 20:42:53 0° 180° (S) 8,102 ? -41.9°
